Starlink 34162

operational
NORAD ID: 64018 Int'l Des: 2025-101 Owner: SPXS Country: US Constellation: starlink
LEOCIRCULAR

About Starlink 34162

Description loading...

Live Position

Loading 3D Globe...

Upcoming Passes

Altitude History

Altitude vs Time

uPlot chart will show altitude changes over time

Two-Line Element Set

1 64018U 25101AA 26061.61990045 .00025523 00000-0 93305-3 0 9997
2 64018 43.0001 37.9157 0000752 253.9500 106.1268 15.27606150 45971
Epoch: Mar 2, 2026 • Age: 32 hours

Current Status

Altitude 495.7 km
Velocity 7.62 km/s
Sub-Earth Point -43.16°S, 26.91°E
Launch Date May 14, 2025
Age 0.7 years
Type internet

Technical Details

Classification Payload
Mass 575.00 kg
Dry Mass 530.00 kg
Total Mass 575.00 kg
Length 0.30 m
Diameter 4.10 m
Span 29.00 m
Shape Box + pan
Manufacturer SPXS
Bus Type Starlink V2MO
Phase Status In Orbit
Owner/State SPXS/US

Large Constellations

Loading constellations...